STARLINK-1417, 45693

Orbit data source: Space-Track

STARLINK-1417, 45693 is a payload satellite owned by SpaceX/Seattle (US) in LEO that was launched on Thu, 04 Jun 2020 UTC via an FALCON 9 launch vehicle from the Air Force Eastern Test Range (AFETR). Payload-class satellites include a variety of spacecraft equipped with specific instruments for various scientific and technological missions. These include communications satellites like Starlink; space stations such as the ISS; scientific satellites like the Hubble; Earth observation satellites from companies like Planet Labs, Umbra, and HawkEye 360; GPS; miniature CubeSats for education and research; and military/defense satellites.

Loading next visibility...
Identifier
45693, 2020-035AN
Orbit
LEO
Last TLE update
7 hours ago
Origin
Manufacturer
SpaceX/Seattle
Mission
Operational Commercial Communications
Bus & Motor
STARLINK, Unknown motor
Mass
260 kg wet, ~248 kg dry
Launch date (UTC)
2020-06-04 (5 years ago)
Launch vehicle
FALCON 9
Launch site
Air Force Eastern Test Range (AFETR)
Object type
Payload
Rocket body
Debris
Shape & HBR
Box + 1 Pan, 8.86 m
Radar Cross Section
13.562 m², Large (>1 m²)

Expand to show TLE details & history

TLE from 7 hours ago
0 STARLINK-1417
1 45693U 20035AN  25182.16262549  .00001585  00000-0  12523-3 0  9995
2 45693  53.0554 105.7681 0001570  91.9270 268.1899 15.06406503280553
Epoch: 2025-07-01T03:54Z
TLE epoch observation values (Epoch: 2025-07-01T03:54:10.842Z)
Latitude
-0°
Longitude
127.76089°
Altitude
548.105 km
Speed
7.589 km/s
True Right ascension
07h 03m 04s
True Declination
0° 00' 00"
Sunlit
Object was in daylight at epoch
Visualization orbit readout
Latitude
48.06672°
Longitude
-177.12077°
Altitude
551.577 km
Speed
7.592 km/s
Apparent Right ascension
10h 27m 47s
Apparent Declination
6° 21' 50"
Sunlit
Object is in daylight
Visualization observer readout
Local Sidereal Time
22:12:53
Azimuth
354.881° N
Elevation
-43.592°
Doppler factor
1
Orbital elements
Apogee altitude
548.55 km
Perigee altitude
546.375 km
Semi-major axis
6,925.599 km
Eccentricity
0.00016
Inclination
53.0554°
RAAN
105.7681°
Arg. of periapsis
91.927°
True anomaly
Unknown
Mean anomaly
268.1899°
Eccentric anomaly
Unknown
Mean motion
3.7658 °/min
Orbital period
95.6 mins
BSTAR
0.00012523
Loading maneuver chart data...
Loading SW <> Apogee altitude chart data...

STARLINK-1417 Visibility forecast

Observer location: undefined°, undefined°

Span
Click to sort rows by Start time (UTC) header in descending order
Start Az.
Max El. time (UTC)
Max El. Az.
Max El.
End time (UTC)
End Az.
7 mins2025-07-01 21:35:24.865Z224.943° SW2025-07-01 21:39:24.865Z74.603° E43.172°2025-07-01 21:42:24.865Z52.51° ENE
4 mins2025-07-01 23:17:24.865Z306.246° NW2025-07-01 23:19:24.865Z348.14° N20.415°2025-07-01 23:21:24.865Z22.088° NNE
4 mins2025-07-02 02:39:24.865Z358.772° N2025-07-02 02:40:24.865Z18.37° NNE18.689°2025-07-02 02:43:24.865Z67.128° ENE
6 mins2025-07-02 04:18:24.865Z315.109° NNW2025-07-02 04:20:24.865Z8.704° NNE44.309°2025-07-02 04:24:24.865Z126.285° SE
|